Time,TemperatureF,DewpointF,PressureIn,WindDirection,WindDirectionDegrees,WindSpeedMPH,WindSpeedGustMPH,Humidity,HourlyPrecipIn,Conditions,Clouds,dailyrainin,SoftwareType,DateUTC
2013-01-03 09:00:00,20.8,15.3,30.33,WNW,301,4.0,4.0,79,0.00,,,0.00,Wunderground v.1.15,2013-01-03 15:00:00,
2013-01-03 09:05:00,20.8,15.3,30.33,WNW,288,4.0,4.0,79,0.00,,,0.00,Wunderground v.1.15,2013-01-03 15:05:00,
2013-01-03 09:15:00,21.3,15.2,30.33,NW,312,6.0,6.0,77,0.00,,,0.00,Wunderground v.1.15,2013-01-03 15:15:00,
2013-01-03 09:20:00,21.3,14.9,30.33,West,260,5.0,7.0,76,0.00,,,0.00,Wunderground v.1.15,2013-01-03 15:20:00,
2013-01-03 09:30:00,21.0,14.6,30.34,West,269,4.0,5.0,76,0.00,,,0.00,Wunderground v.1.15,2013-01-03 15:30:00,
2013-01-03 09:35:00,21.1,14.7,30.34,NW,321,3.0,8.0,76,0.00,,,0.00,Wunderground v.1.15,2013-01-03 15:35:00,
2013-01-03 09:40:00,20.9,14.2,30.34,NNW,331,5.0,6.0,75,0.00,,,0.00,Wunderground v.1.15,2013-01-03 15:40:00,
2013-01-03 09:50:00,20.9,14.5,30.35,NW,304,3.0,3.0,76,0.00,,,0.00,Wunderground v.1.15,2013-01-03 15:50:00,
2013-01-03 09:55:00,20.9,14.2,30.34,NW,320,2.0,3.0,75,0.00,,,0.00,Wunderground v.1.15,2013-01-03 15:55:00,
2013-01-03 10:00:00,20.9,14.2,30.35,WSW,252,3.0,3.0,75,0.00,,,0.00,Wunderground v.1.15,2013-01-03 16:00:00,
2013-01-03 10:05:00,20.6,13.9,30.35,NW,313,3.0,4.0,75,0.00,,,0.00,Wunderground v.1.15,2013-01-03 16:05:00,
2013-01-03 10:15:00,20.1,13.7,30.35,West,270,3.0,4.0,76,0.00,,,0.00,Wunderground v.1.15,2013-01-03 16:15:00,
2013-01-03 10:20:00,19.9,13.6,30.35,West,281,3.0,3.0,76,0.00,,,0.00,Wunderground v.1.15,2013-01-03 16:20:00,
2013-01-03 10:25:00,19.9,13.9,30.35,NW,317,2.0,3.0,77,0.00,,,0.00,Wunderground v.1.15,2013-01-03 16:25:00,
2013-01-03 10:30:00,19.9,13.9,30.35,NW,306,2.0,4.0,77,0.00,,,0.00,Wunderground v.1.15,2013-01-03 16:30:00,
2013-01-03 10:40:00,19.7,13.4,30.35,NW,309,3.0,3.0,76,0.00,,,0.00,Wunderground v.1.15,2013-01-03 16:40:00,
2013-01-03 10:45:00,19.7,13.4,30.35,WNW,290,3.0,4.0,76,0.00,,,0.00,Wunderground v.1.15,2013-01-03 16:45:00,
2013-01-03 10:50:00,19.7,13.7,30.35,NW,321,3.0,3.0,77,0.00,,,0.00,Wunderground v.1.15,2013-01-03 16:50:00,
2013-01-03 10:55:00,19.7,13.7,30.35,WSW,243,2.0,4.0,77,0.00,,,0.00,Wunderground v.1.15,2013-01-03 16:55:00,
2013-01-03 11:05:00,19.5,13.8,30.35,WSW,254,2.0,4.0,78,0.00,,,0.00,Wunderground v.1.15,2013-01-03 17:05:00,
2013-01-03 11:15:00,19.3,13.6,30.35,West,267,3.0,4.0,78,0.00,,,0.00,Wunderground v.1.15,2013-01-03 17:15:00,
2013-01-03 11:20:00,19.0,13.0,30.36,WNW,300,3.0,3.0,77,0.00,,,0.00,Wunderground v.1.15,2013-01-03 17:20:00,
2013-01-03 11:25:00,19.2,13.5,30.35,West,281,3.0,5.0,78,0.00,,,0.00,Wunderground v.1.15,2013-01-03 17:25:00,
2013-01-03 11:35:00,18.9,13.2,30.35,WNW,284,3.0,4.0,78,0.00,,,0.00,Wunderground v.1.15,2013-01-03 17:35:00,
2013-01-03 11:40:00,19.0,13.6,30.35,NNW,338,3.0,3.0,79,0.00,,,0.00,Wunderground v.1.15,2013-01-03 17:40:00,
2013-01-03 11:50:00,19.6,14.1,30.35,WNW,284,2.0,2.0,79,0.00,,,0.00,Wunderground v.1.15,2013-01-03 17:50:00,
2013-01-03 11:55:00,19.5,13.8,30.35,West,271,2.0,3.0,78,0.00,,,0.00,Wunderground v.1.15,2013-01-03 17:55:00,
2013-01-03 12:00:00,19.5,13.8,30.35,West,274,3.0,3.0,78,0.00,,,0.00,Wunderground v.1.15,2013-01-03 18:00:00,
2013-01-03 12:05:00,19.5,13.8,30.35,NW,310,4.0,4.0,78,0.00,,,0.00,Wunderground v.1.15,2013-01-03 18:05:00,
2013-01-03 12:15:00,19.9,14.1,30.35,West,280,2.0,3.0,78,0.00,,,0.00,Wunderground v.1.15,2013-01-03 18:15:00,
2013-01-03 12:20:00,19.9,14.1,30.35,WNW,290,2.0,2.0,78,0.00,,,0.00,Wunderground v.1.15,2013-01-03 18:20:00,
2013-01-03 12:25:00,19.7,14.0,30.35,WNW,283,2.0,5.0,78,0.00,,,0.00,Wunderground v.1.15,2013-01-03 18:25:00,
2013-01-03 12:30:00,19.7,14.0,30.35,WNW,290,3.0,3.0,78,0.00,,,0.00,Wunderground v.1.15,2013-01-03 18:30:00,
2013-01-03 12:40:00,20.3,14.5,30.35,NW,306,3.0,3.0,78,0.00,,,0.00,Wunderground v.1.15,2013-01-03 18:40:00,
2013-01-03 12:45:00,20.9,15.1,30.35,WNW,292,2.0,3.0,78,0.00,,,0.00,Wunderground v.1.15,2013-01-03 18:45:00,
2013-01-03 12:50:00,21.1,15.0,30.35,WNW,289,3.0,3.0,77,0.00,,,0.00,Wunderground v.1.15,2013-01-03 18:50:00,
2013-01-03 13:00:00,20.8,15.0,30.35,West,261,3.0,3.0,78,0.00,,,0.00,Wunderground v.1.15,2013-01-03 19:00:00,
2013-01-03 13:05:00,21.4,15.6,30.35,West,275,2.0,4.0,78,0.00,,,0.00,Wunderground v.1.15,2013-01-03 19:05:00,
2013-01-03 13:15:00,21.4,15.3,30.35,NW,304,2.0,3.0,77,0.00,,,0.00,Wunderground v.1.15,2013-01-03 19:15:00,
2013-01-03 13:55:00,21.4,15.3,30.36,West,271,2.0,5.0,77,0.00,,,0.00,Wunderground v.1.15,2013-01-03 19:55:00,
2013-01-03 14:00:00,21.5,15.7,30.36,WNW,288,2.0,4.0,78,0.00,,,0.00,Wunderground v.1.15,2013-01-03 20:00:00,
2013-01-03 14:05:00,21.6,15.5,30.36,WSW,250,2.0,4.0,77,0.00,,,0.00,Wunderground v.1.15,2013-01-03 20:05:00,
2013-01-03 14:15:00,22.0,15.9,30.36,NW,323,1.0,2.0,77,0.00,,,0.00,Wunderground v.1.15,2013-01-03 20:15:00,
2013-01-03 14:20:00,22.0,16.2,30.36,NNW,344,1.0,3.0,78,0.00,,,0.00,Wunderground v.1.15,2013-01-03 20:20:00,
2013-01-03 14:25:00,21.8,16.0,30.36,West,281,2.0,3.0,78,0.00,,,0.00,Wunderground v.1.15,2013-01-03 20:25:00,
2013-01-03 14:35:00,21.4,15.6,30.37,SW,230,1.0,2.0,78,0.00,,,0.00,Wunderground v.1.15,2013-01-03 20:35:00,
2013-01-03 14:40:00,21.4,15.6,30.37,South,184,1.0,3.0,78,0.00,,,0.00,Wunderground v.1.15,2013-01-03 20:40:00,
2013-01-03 14:45:00,21.3,15.5,30.37,WSW,245,2.0,3.0,78,0.00,,,0.00,Wunderground v.1.15,2013-01-03 20:45:00,
2013-01-03 14:50:00,21.1,15.6,30.37,West,270,2.0,2.0,79,0.00,,,0.00,Wunderground v.1.15,2013-01-03 20:50:00,
2013-01-03 15:00:00,20.9,15.4,30.37,WNW,300,2.0,2.0,79,0.00,,,0.00,Wunderground v.1.15,2013-01-03 21:00:00,
2013-01-03 15:05:00,20.8,15.3,30.37,WNW,299,2.0,2.0,79,0.00,,,0.00,Wunderground v.1.15,2013-01-03 21:05:00,
2013-01-03 15:15:00,20.8,15.6,30.38,West,280,1.0,2.0,80,0.00,,,0.00,Wunderground v.1.15,2013-01-03 21:15:00,
2013-01-03 15:25:00,20.7,15.5,30.38,NW,317,2.0,4.0,80,0.00,,,0.00,Wunderground v.1.15,2013-01-03 21:25:00,
2013-01-03 15:30:00,20.5,15.3,30.38,NW,325,3.0,3.0,80,0.00,,,0.00,Wunderground v.1.15,2013-01-03 21:30:00,
2013-01-03 15:35:00,20.6,15.4,30.38,WSW,243,2.0,3.0,80,0.00,,,0.00,Wunderground v.1.15,2013-01-03 21:35:00,
2013-01-03 15:45:00,20.3,15.1,30.39,NW,310,2.0,2.0,80,0.00,,,0.00,Wunderground v.1.15,2013-01-03 21:45:00,
2013-01-03 15:50:00,20.3,15.1,30.39,West,263,3.0,5.0,80,0.00,,,0.00,Wunderground v.1.15,2013-01-03 21:50:00,
2013-01-03 15:55:00,20.2,15.0,30.39,NW,319,2.0,5.0,80,0.00,,,0.00,Wunderground v.1.15,2013-01-03 21:55:00,
2013-01-03 16:00:00,20.3,15.4,30.39,WNW,283,1.0,1.0,81,0.00,,,0.00,Wunderground v.1.15,2013-01-03 22:00:00,
2013-01-03 16:05:00,20.2,15.3,30.39,WSW,242,1.0,1.0,81,0.00,,,0.00,Wunderground v.1.15,2013-01-03 22:05:00,
2013-01-03 16:15:00,19.9,15.0,30.40,SSW,213,1.0,1.0,81,0.00,,,0.00,Wunderground v.1.15,2013-01-03 22:15:00,
2013-01-03 16:20:00,19.7,14.8,30.40,West,265,1.0,6.0,81,0.00,,,0.00,Wunderground v.1.15,2013-01-03 22:20:00,
2013-01-03 16:25:00,19.7,15.1,30.40,SW,222,1.0,6.0,82,0.00,,,0.00,Wunderground v.1.15,2013-01-03 22:25:00,
2013-01-03 16:35:00,19.5,14.9,30.40,NW,315,1.0,1.0,82,0.00,,,0.00,Wunderground v.1.15,2013-01-03 22:35:00,
2013-01-03 16:40:00,19.4,14.8,30.40,West,277,1.0,1.0,82,0.00,,,0.00,Wunderground v.1.15,2013-01-03 22:40:00,
2013-01-03 16:45:00,19.4,14.8,30.41,West,261,1.0,1.0,82,0.00,,,0.00,Wunderground v.1.15,2013-01-03 22:45:00,
2013-01-03 16:55:00,19.2,14.6,30.41,WNW,286,3.0,3.0,82,0.00,,,0.00,Wunderground v.1.15,2013-01-03 22:55:00,
2013-01-03 17:00:00,19.1,14.5,30.41,NNW,339,2.0,2.0,82,0.00,,,0.00,Wunderground v.1.15,2013-01-03 23:00:00,
2013-01-03 17:05:00,19.0,14.4,30.41,WSW,256,1.0,6.0,82,0.00,,,0.00,Wunderground v.1.15,2013-01-03 23:05:00,
2013-01-03 17:15:00,18.8,14.2,30.41,WNW,299,2.0,2.0,82,0.00,,,0.00,Wunderground v.1.15,2013-01-03 23:15:00,
2013-01-03 17:25:00,18.7,14.4,30.41,WNW,291,1.0,3.0,83,0.00,,,0.00,Wunderground v.1.15,2013-01-03 23:25:00,
2013-01-03 17:35:00,18.6,14.3,30.42,West,261,1.0,4.0,83,0.00,,,0.00,Wunderground v.1.15,2013-01-03 23:35:00,
2013-01-03 17:40:00,18.6,14.3,30.42,West,268,1.0,2.0,83,0.00,,,0.00,Wunderground v.1.15,2013-01-03 23:40:00,
2013-01-03 17:45:00,18.6,14.3,30.42,NW,309,1.0,2.0,83,0.00,,,0.00,Wunderground v.1.15,2013-01-03 23:45:00,
2013-01-03 17:55:00,18.4,13.8,30.42,WSW,246,2.0,4.0,82,0.00,,,0.00,Wunderground v.1.15,2013-01-03 23:55:00,
2013-01-03 18:00:00,18.4,13.8,30.42,NW,307,3.0,3.0,82,0.00,,,0.00,Wunderground v.1.15,2013-01-04 00:00:00,
2013-01-03 18:05:00,18.3,14.0,30.42,NW,306,2.0,3.0,83,0.00,,,0.00,Wunderground v.1.15,2013-01-04 00:05:00,
2013-01-03 18:15:00,17.9,13.3,30.42,NW,307,2.0,4.0,82,0.00,,,0.00,Wunderground v.1.15,2013-01-04 00:15:00,
2013-01-03 18:25:00,17.6,13.0,30.42,West,273,1.0,2.0,82,0.00,,,0.00,Wunderground v.1.15,2013-01-04 00:25:00,
2013-01-03 18:30:00,17.4,12.8,30.42,West,273,0.0,0.0,82,0.00,,,0.00,Wunderground v.1.15,2013-01-04 00:30:00,
2013-01-03 18:35:00,17.2,12.6,30.42,WSW,247,1.0,1.0,82,0.00,,,0.00,Wunderground v.1.15,2013-01-04 00:35:00,
2013-01-03 18:45:00,16.8,12.5,30.42,SSW,211,0.0,3.0,83,0.00,,,0.00,Wunderground v.1.15,2013-01-04 00:45:00,
2013-01-03 18:50:00,16.5,12.2,30.42,South,188,1.0,1.0,83,0.00,,,0.00,Wunderground v.1.15,2013-01-04 00:50:00,
2013-01-03 19:00:00,16.0,11.7,30.43,WSW,257,1.0,1.0,83,0.00,,,0.00,Wunderground v.1.15,2013-01-04 01:00:00,
2013-01-03 19:05:00,15.9,11.7,30.43,West,260,1.0,1.0,83,0.00,,,0.00,Wunderground v.1.15,2013-01-04 01:05:00,
2013-01-03 19:15:00,15.5,11.3,30.43,West,273,0.0,3.0,83,0.00,,,0.00,Wunderground v.1.15,2013-01-04 01:15:00,
2013-01-03 19:20:00,15.4,11.2,30.43,West,262,1.0,1.0,83,0.00,,,0.00,Wunderground v.1.15,2013-01-04 01:20:00,
2013-01-03 19:25:00,15.3,11.1,30.43,West,263,1.0,1.0,83,0.00,,,0.00,Wunderground v.1.15,2013-01-04 01:25:00,
2013-01-03 19:35:00,15.3,11.3,30.43,West,279,1.0,6.0,84,0.00,,,0.00,Wunderground v.1.15,2013-01-04 01:35:00,
2013-01-03 19:40:00,15.3,11.1,30.43,West,275,1.0,1.0,83,0.00,,,0.00,Wunderground v.1.15,2013-01-04 01:40:00,
2013-01-03 19:45:00,15.2,11.0,30.43,West,263,1.0,1.0,83,0.00,,,0.00,Wunderground v.1.15,2013-01-04 01:45:00,
2013-01-03 19:55:00,15.1,10.9,30.43,West,273,1.0,3.0,83,0.00,,,0.00,Wunderground v.1.15,2013-01-04 01:55:00,
2013-01-03 20:00:00,15.0,10.8,30.43,West,279,2.0,7.0,83,0.00,,,0.00,Wunderground v.1.15,2013-01-04 02:00:00,
2013-01-03 20:05:00,15.0,10.8,30.43,WNW,292,2.0,7.0,83,0.00,,,0.00,Wunderground v.1.15,2013-01-04 02:05:00,
2013-01-03 20:15:00,14.8,10.6,30.43,NW,304,2.0,3.0,83,0.00,,,0.00,Wunderground v.1.15,2013-01-04 02:15:00,
2013-01-03 20:20:00,14.7,10.5,30.44,NW,309,2.0,2.0,83,0.00,,,0.00,Wunderground v.1.15,2013-01-04 02:20:00,
2013-01-03 20:25:00,14.5,10.0,30.44,West,263,3.0,7.0,82,0.00,,,0.00,Wunderground v.1.15,2013-01-04 02:25:00,
2013-01-03 20:30:00,14.3,10.1,30.44,West,280,3.0,4.0,83,0.00,,,0.00,Wunderground v.1.15,2013-01-04 02:30:00,
2013-01-03 20:35:00,14.1,9.6,30.44,West,267,3.0,4.0,82,0.00,,,0.00,Wunderground v.1.15,2013-01-04 02:35:00,
2013-01-03 20:45:00,13.6,9.4,30.44,NW,304,3.0,4.0,83,0.00,,,0.00,Wunderground v.1.15,2013-01-04 02:45:00,
2013-01-03 20:55:00,13.2,8.7,30.42,NW,315,2.0,3.0,82,0.00,,,0.00,Wunderground v.1.15,2013-01-04 02:55:00,
2013-01-03 21:00:00,13.0,8.8,30.42,WSW,248,1.0,1.0,83,0.00,,,0.00,Wunderground v.1.15,2013-01-04 03:00:00,
2013-01-03 21:05:00,12.7,8.5,30.42,West,278,0.0,1.0,83,0.00,,,0.00,Wunderground v.1.15,2013-01-04 03:05:00,
2013-01-03 21:15:00,12.4,8.2,30.41,West,260,1.0,1.0,83,0.00,,,0.00,Wunderground v.1.15,2013-01-04 03:15:00,
2013-01-03 21:25:00,11.8,7.6,30.42,West,268,1.0,1.0,83,0.00,,,0.00,Wunderground v.1.15,2013-01-04 03:25:00,
2013-01-03 21:30:00,11.6,7.4,30.42,WSW,243,1.0,1.0,83,0.00,,,0.00,Wunderground v.1.15,2013-01-04 03:30:00,
2013-01-03 21:40:00,11.2,7.0,30.43,West,276,1.0,3.0,83,0.00,,,0.00,Wunderground v.1.15,2013-01-04 03:40:00,
2013-01-03 21:45:00,11.2,7.3,30.43,West,259,1.0,4.0,84,0.00,,,0.00,Wunderground v.1.15,2013-01-04 03:45:00,
2013-01-03 21:50:00,11.1,7.2,30.43,WNW,289,1.0,1.0,84,0.00,,,0.00,Wunderground v.1.15,2013-01-04 03:50:00,
2013-01-03 22:00:00,11.0,6.8,30.43,West,265,1.0,1.0,83,0.00,,,0.00,Wunderground v.1.15,2013-01-04 04:00:00,
2013-01-03 22:05:00,11.0,7.1,30.43,West,276,1.0,1.0,84,0.00,,,0.00,Wunderground v.1.15,2013-01-04 04:05:00,
2013-01-03 22:15:00,10.8,6.9,30.43,West,277,1.0,1.0,84,0.00,,,0.00,Wunderground v.1.15,2013-01-04 04:15:00,
2013-01-03 22:20:00,10.7,6.8,30.42,NW,311,1.0,2.0,84,0.00,,,0.00,Wunderground v.1.15,2013-01-04 04:20:00,
2013-01-03 22:30:00,10.5,6.6,30.42,NNW,333,1.0,1.0,84,0.00,,,0.00,Wunderground v.1.15,2013-01-04 04:30:00,
2013-01-03 22:40:00,10.4,6.5,30.43,NW,315,1.0,1.0,84,0.00,,,0.00,Wunderground v.1.15,2013-01-04 04:40:00,
2013-01-03 22:45:00,10.4,6.5,30.42,WNW,292,1.0,1.0,84,0.00,,,0.00,Wunderground v.1.15,2013-01-04 04:45:00,
2013-01-03 22:50:00,10.3,6.4,30.42,NW,324,1.0,2.0,84,0.00,,,0.00,Wunderground v.1.15,2013-01-04 04:50:00,
2013-01-03 23:05:00,10.0,6.1,30.42,WSW,240,0.0,0.0,84,0.00,,,0.00,Wunderground v.1.15,2013-01-04 05:05:00,
2013-01-03 23:15:00,9.9,6.0,30.42,WSW,239,0.0,0.0,84,0.00,,,0.00,Wunderground v.1.15,2013-01-04 05:15:00,
2013-01-03 23:20:00,9.8,5.9,30.42,West,266,0.0,0.0,84,0.00,,,0.00,Wunderground v.1.15,2013-01-04 05:20:00,
2013-01-03 23:30:00,9.6,5.7,30.42,NW,311,0.0,3.0,84,0.00,,,0.00,Wunderground v.1.15,2013-01-04 05:30:00,
2013-01-03 23:35:00,9.5,5.6,30.42,NW,307,0.0,3.0,84,0.00,,,0.00,Wunderground v.1.15,2013-01-04 05:35:00,
2013-01-03 23:45:00,9.3,5.4,30.41,NW,306,0.0,1.0,84,0.00,,,0.00,Wunderground v.1.15,2013-01-04 05:45:00,
2013-01-03 23:50:00,9.2,5.3,30.41,WNW,290,0.0,0.0,84,0.00,,,0.00,Wunderground v.1.15,2013-01-04 05:50:00,